Precipitable_Water
0.50 0.50 0.50 0.51 0.51 0.52 0.51 0.52 0.52 0.51 0.50 0.50 0.50 0.49 0.49 0.49 0.47 0.47 0.46 0.45 0.45 0.45 0.45 0.43 0.44 0.44 0.42 0.42 0.42 0.42 0.42 0.33 0.30 0.28 0.26 0.30 0.39 0.46 0.41 0.39 0.39 0.37 0.36 0.31 0.30 0.27 0.23 0.24 0.24 0.27 0.25 0.24 0.23 0.23 0.28 0.27 0.28 0.22 0.14 0.12 0.11 0.13 0.14 0.19 0.20 0.23 0.25 0.23 0.26 0.27 0.29 0.27 0.26 0.31 0.33 0.35 0.32 0.31 0.31 0.31 0.33 0.35 0.35 0.36 0.37 0.37 0.38 0.39
0.50 0.51 0.52 0.51 0.51 0.52 0.52 0.52 0.52 0.51 0.51 0.50 0.50 0.50 0.50 0.49 0.48 0.47 0.47 0.46 0.46 0.45 0.45 0.46 0.45 0.44 0.44 0.43 0.43 0.45 0.40 0.34 0.28 0.28 0.27 0.42 0.45 0.45 0.43 0.42 0.41 0.37 0.35 0.29 0.26 0.26 0.23 0.23 0.25 0.26 0.23 0.20 0.30 0.22 0.30 0.23 0.29 0.18 0.16 0.14 0.12 0.15 0.17 0.24 0.26 0.27 0.25 0.25 0.27 0.27 0.29 0.28 0.28 0.31 0.33 0.29 0.29 0.30 0.29 0.31 0.33 0.33 0.35 0.37 0.38 0.37 0.37 0.39
0.50 0.52 0.52 0.52 0.52 0.52 0.52 0.53 0.51 0.50 0.51 0.51 0.51 0.52 0.51 0.49 0.50 0.50 0.49 0.49 0.48 0.47 0.48 0.47 0.47 0.47 0.46 0.46 0.46 0.47 0.41 0.32 0.27 0.24 0.32 0.51 0.50 0.47 0.44 0.45 0.43 0.41 0.35 0.29 0.30 0.30 0.26 0.25 0.26 0.25 0.23 0.20 0.25 0.21 0.27 0.24 0.27 0.27 0.20 0.15 0.17 0.21 0.21 0.25 0.26 0.26 0.28 0.29 0.27 0.27 0.29 0.30 0.31 0.32 0.35 0.30 0.29 0.31 0.29 0.30 0.33 0.33 0.33 0.35 0.36 0.37 0.37 0.38
0.51 0.52 0.52 0.52 0.52 0.52 0.53 0.53 0.53 0.52 0.53 0.54 0.53 0.53 0.54 0.53 0.52 0.53 0.53 0.52 0.51 0.51 0.51 0.51 0.51 0.50 0.50 0.48 0.49 0.48 0.42 0.29 0.24 0.27 0.40 0.49 0.47 0.47 0.46 0.46 0.46 0.43 0.40 0.36 0.34 0.32 0.32 0.30 0.28 0.26 0.23 0.20 0.23 0.28 0.23 0.29 0.24 0.29 0.25 0.20 0.21 0.26 0.23 0.26 0.29 0.31 0.31 0.32 0.30 0.30 0.32 0.31 0.33 0.35 0.34 0.32 0.30 0.30 0.31 0.34 0.33 0.32 0.34 0.36 0.37 0.38 0.38 0.37
0.53 0.52 0.53 0.53 0.53 0.54 0.55 0.55 0.55 0.56 0.56 0.56 0.58 0.58 0.57 0.58 0.58 0.58 0.59 0.58 0.58 0.58 0.57 0.56 0.56 0.55 0.54 0.53 0.51 0.52 0.35 0.24 0.25 0.33 0.46 0.50 0.48 0.48 0.48 0.48 0.48 0.45 0.42 0.39 0.37 0.35 0.33 0.30 0.28 0.27 0.25 0.22 0.25 0.27 0.26 0.31 0.34 0.32 0.26 0.28 0.28 0.29 0.26 0.29 0.32 0.34 0.33 0.35 0.33 0.33 0.31 0.31 0.37 0.36 0.35 0.34 0.29 0.29 0.32 0.34 0.36 0.36 0.36 0.36 0.36 0.37 0.37 0.37
0.53 0.53 0.54 0.55 0.53 0.56 0.57 0.57 0.59 0.59 0.60 0.60 0.62 0.63 0.63 0.64 0.65 0.65 0.65 0.65 0.65 0.64 0.63 0.62 0.61 0.59 0.60 0.58 0.57 0.50 0.38 0.16 0.31 0.33 0.52 0.52 0.50 0.52 0.54 0.53 0.52 0.49 0.44 0.37 0.34 0.34 0.32 0.30 0.30 0.27 0.26 0.26 0.26 0.24 0.27 0.33 0.37 0.25 0.30 0.31 0.32 0.33 0.29 0.32 0.34 0.35 0.35 0.34 0.33 0.32 0.35 0.36 0.35 0.34 0.36 0.36 0.33 0.34 0.37 0.38 0.38 0.38 0.38 0.38 0.38 0.38 0.37 0.37
0.55 0.54 0.55 0.56 0.54 0.57 0.58 0.60 0.60 0.62 0.64 0.65 0.66 0.68 0.69 0.69 0.69 0.69 0.69 0.68 0.67 0.68 0.67 0.67 0.66 0.68 0.67 0.66 0.70 0.52 0.40 0.40 0.43 0.59 0.57 0.56 0.53 0.55 0.58 0.56 0.53 0.48 0.43 0.36 0.36 0.34 0.33 0.31 0.30 0.28 0.28 0.28 0.29 0.28 0.29 0.30 0.35 0.30 0.26 0.31 0.31 0.34 0.32 0.35 0.35 0.37 0.36 0.35 0.34 0.36 0.38 0.34 0.35 0.31 0.37 0.34 0.36 0.37 0.39 0.40 0.40 0.39 0.39 0.40 0.39 0.40 0.40 0.39
0.56 0.55 0.57 0.57 0.57 0.58 0.60 0.61 0.63 0.65 0.66 0.69 0.70 0.70 0.70 0.70 0.70 0.70 0.70 0.69 0.68 0.68 0.69 0.67 0.69 0.70 0.69 0.61 0.50 0.43 0.41 0.41 0.55 0.72 0.73 0.63 0.58 0.60 0.59 0.56 0.51 0.46 0.40 0.36 0.37 0.34 0.35 0.32 0.29 0.32 0.29 0.27 0.29 0.29 0.31 0.30 0.31 0.28 0.28 0.32 0.32 0.34 0.34 0.35 0.35 0.35 0.36 0.36 0.37 0.37 0.34 0.34 0.35 0.34 0.36 0.33 0.36 0.38 0.40 0.41 0.40 0.40 0.40 0.41 0.40 0.40 0.41 0.40
0.57 0.57 0.58 0.58 0.59 0.60 0.62 0.64 0.65 0.66 0.69 0.69 0.71 0.71 0.71 0.72 0.71 0.71 0.71 0.71 0.70 0.68 0.69 0.70 0.68 0.67 0.67 0.55 0.45 0.38 0.37 0.54 0.67 0.76 0.76 0.67 0.61 0.62 0.59 0.49 0.52 0.44 0.41 0.41 0.42 0.39 0.37 0.34 0.34 0.35 0.29 0.30 0.34 0.30 0.32 0.29 0.26 0.32 0.31 0.33 0.33 0.32 0.34 0.35 0.35 0.35 0.36 0.37 0.37 0.35 0.34 0.36 0.37 0.39 0.35 0.35 0.37 0.40 0.41 0.41 0.40 0.41 0.40 0.40 0.41 0.41 0.41 0.41
0.58 0.58 0.59 0.59 0.60 0.63 0.65 0.66 0.68 0.69 0.70 0.71 0.71 0.73 0.73 0.74 0.74 0.74 0.74 0.74 0.73 0.73 0.72 0.73 0.73 0.70 0.56 0.47 0.44 0.31 0.47 0.67 0.81 0.81 0.78 0.72 0.67 0.63 0.59 0.54 0.52 0.47 0.42 0.43 0.43 0.41 0.38 0.39 0.38 0.40 0.39 0.36 0.38 0.34 0.36 0.33 0.30 0.36 0.34 0.34 0.34 0.35 0.35 0.36 0.35 0.36 0.38 0.37 0.38 0.35 0.35 0.35 0.38 0.36 0.30 0.37 0.39 0.40 0.40 0.40 0.41 0.41 0.41 0.42 0.43 0.44 0.44 0.43
0.59 0.59 0.60 0.61 0.62 0.66 0.68 0.69 0.70 0.71 0.72 0.73 0.74 0.75 0.76 0.77 0.78 0.78 0.78 0.77 0.76 0.76 0.76 0.76 0.78 0.67 0.51 0.50 0.38 0.33 0.68 0.73 0.77 0.78 0.78 0.71 0.65 0.58 0.55 0.56 0.55 0.49 0.48 0.46 0.44 0.46 0.46 0.45 0.47 0.46 0.43 0.37 0.39 0.36 0.37 0.36 0.39 0.37 0.36 0.36 0.35 0.36 0.36 0.37 0.37 0.37 0.39 0.37 0.39 0.37 0.34 0.36 0.36 0.35 0.33 0.37 0.39 0.40 0.38 0.39 0.40 0.41 0.41 0.43 0.45 0.46 0.47 0.47
0.61 0.62 0.63 0.64 0.66 0.69 0.70 0.73 0.72 0.73 0.75 0.76 0.78 0.79 0.81 0.82 0.82 0.81 0.81 0.79 0.79 0.79 0.79 0.77 0.78 0.71 0.58 0.48 0.41 0.42 0.67 0.72 0.79 0.80 0.76 0.71 0.63 0.64 0.65 0.65 0.62 0.58 0.56 0.53 0.55 0.55 0.54 0.52 0.51 0.46 0.37 0.45 0.35 0.39 0.37 0.42 0.40 0.38 0.37 0.31 0.33 0.34 0.33 0.38 0.37 0.38 0.39 0.36 0.39 0.38 0.33 0.31 0.33 0.31 0.36 0.38 0.40 0.40 0.39 0.39 0.40 0.41 0.42 0.44 0.46 0.47 0.48 0.48
0.62 0.64 0.65 0.67 0.70 0.72 0.73 0.75 0.76 0.76 0.78 0.81 0.82 0.84 0.84 0.85 0.85 0.85 0.83 0.81 0.81 0.82 0.81 0.82 0.77 0.71 0.54 0.40 0.46 0.60 0.69 0.77 0.81 0.80 0.73 0.71 0.69 0.69 0.69 0.69 0.67 0.66 0.64 0.60 0.59 0.62 0.62 0.58 0.55 0.48 0.49 0.45 0.41 0.36 0.41 0.43 0.40 0.39 0.36 0.33 0.31 0.32 0.33 0.38 0.39 0.38 0.37 0.38 0.40 0.39 0.26 0.28 0.32 0.35 0.38 0.40 0.41 0.41 0.40 0.40 0.42 0.43 0.44 0.46 0.47 0.48 0.49 0.50
0.65 0.67 0.70 0.72 0.74 0.76 0.77 0.78 0.80 0.82 0.84 0.85 0.88 0.87 0.87 0.87 0.88 0.87 0.85 0.82 0.84 0.83 0.84 0.81 0.78 0.68 0.53 0.44 0.56 0.66 0.75 0.78 0.81 0.76 0.70 0.73 0.66 0.65 0.69 0.69 0.69 0.68 0.69 0.63 0.61 0.63 0.61 0.61 0.57 0.52 0.53 0.45 0.40 0.49 0.42 0.40 0.40 0.33 0.34 0.35 0.30 0.29 0.28 0.36 0.36 0.38 0.36 0.41 0.40 0.39 0.27 0.29 0.34 0.37 0.39 0.41 0.42 0.42 0.41 0.42 0.43 0.44 0.45 0.46 0.47 0.48 0.49 0.49
0.67 0.70 0.73 0.76 0.78 0.79 0.81 0.82 0.84 0.87 0.89 0.90 0.90 0.91 0.90 0.89 0.90 0.87 0.87 0.82 0.85 0.86 0.83 0.84 0.79 0.61 0.48 0.50 0.64 0.72 0.75 0.80 0.68 0.68 0.74 0.67 0.63 0.61 0.63 0.66 0.63 0.64 0.64 0.63 0.61 0.62 0.62 0.59 0.55 0.48 0.44 0.50 0.48 0.42 0.37 0.36 0.36 0.34 0.30 0.27 0.32 0.28 0.28 0.34 0.39 0.40 0.35 0.39 0.40 0.37 0.28 0.30 0.34 0.37 0.40 0.42 0.43 0.43 0.41 0.42 0.43 0.44 0.45 0.46 0.47 0.47 0.47 0.46
0.74 0.75 0.78 0.79 0.81 0.83 0.85 0.88 0.91 0.92 0.92 0.93 0.93 0.93 0.93 0.93 0.90 0.87 0.87 0.86 0.86 0.85 0.86 0.70 0.69 0.61 0.50 0.43 0.56 0.76 0.68 0.58 0.59 0.71 0.74 0.72 0.66 0.57 0.64 0.63 0.64 0.62 0.62 0.61 0.63 0.62 0.60 0.58 0.49 0.48 0.46 0.46 0.41 0.37 0.34 0.31 0.31 0.34 0.30 0.28 0.28 0.30 0.30 0.33 0.39 0.41 0.41 0.38 0.39 0.36 0.29 0.32 0.34 0.39 0.42 0.43 0.43 0.42 0.41 0.41 0.43 0.44 0.45 0.45 0.45 0.45 0.44 0.43
0.76 0.79 0.82 0.84 0.87 0.90 0.92 0.94 0.95 0.96 0.96 0.96 0.96 0.96 0.95 0.93 0.91 0.89 0.87 0.88 0.86 0.89 0.82 0.63 0.67 0.68 0.42 0.60 0.71 0.56 0.54 0.62 0.71 0.69 0.70 0.73 0.68 0.64 0.61 0.60 0.57 0.58 0.60 0.61 0.59 0.58 0.56 0.50 0.50 0.47 0.47 0.40 0.40 0.36 0.29 0.27 0.27 0.30 0.34 0.29 0.31 0.29 0.31 0.31 0.39 0.42 0.41 0.39 0.34 0.36 0.32 0.33 0.36 0.41 0.43 0.43 0.43 0.41 0.40 0.40 0.42 0.43 0.42 0.42 0.42 0.41 0.40 0.40
0.80 0.84 0.88 0.91 0.94 0.96 0.98 0.99 1.00 0.99 1.00 0.99 0.97 0.96 0.92 0.94 0.93 0.89 0.86 0.85 0.89 0.82 0.80 0.80 0.71 0.59 0.48 0.61 0.47 0.51 0.63 0.62 0.66 0.69 0.69 0.72 0.72 0.66 0.62 0.57 0.58 0.57 0.56 0.52 0.56 0.49 0.51 0.44 0.46 0.38 0.39 0.37 0.36 0.33 0.28 0.24 0.27 0.28 0.30 0.29 0.30 0.33 0.34 0.33 0.33 0.38 0.40 0.40 0.36 0.36 0.34 0.35 0.38 0.41 0.42 0.43 0.42 0.40 0.39 0.40 0.41 0.40 0.39 0.40 0.39 0.38 0.38 0.38
0.86 0.89 0.94 0.97 0.99 0.99 1.01 1.02 1.02 1.03 1.03 1.02 1.01 1.02 0.99 0.96 0.91 0.89 0.76 0.76 0.65 0.55 0.47 0.50 0.52 0.37 0.32 0.47 0.59 0.60 0.62 0.68 0.71 0.67 0.62 0.67 0.69 0.66 0.62 0.60 0.56 0.51 0.45 0.44 0.44 0.47 0.47 0.44 0.44 0.38 0.32 0.34 0.34 0.34 0.32 0.32 0.34 0.32 0.33 0.32 0.32 0.30 0.31 0.33 0.38 0.43 0.41 0.37 0.35 0.35 0.33 0.35 0.37 0.38 0.40 0.41 0.41 0.40 0.40 0.41 0.39 0.38 0.39 0.39 0.38 0.37 0.37 0.38
0.92 0.94 0.98 1.01 1.01 1.02 1.03 1.04 1.04 1.04 1.05 0.97 0.94 0.89 0.82 0.65 0.64 0.60 0.71 0.71 0.58 0.55 0.55 0.56 0.59 0.57 0.56 0.56 0.55 0.66 0.74 0.74 0.60 0.64 0.66 0.70 0.64 0.58 0.56 0.54 0.50 0.49 0.44 0.39 0.43 0.46 0.49 0.40 0.37 0.36 0.38 0.41 0.42 0.40 0.39 0.39 0.39 0.38 0.37 0.35 0.33 0.33 0.34 0.39 0.40 0.43 0.43 0.37 0.35 0.36 0.36 0.36 0.36 0.37 0.38 0.40 0.41 0.39 0.39 0.38 0.37 0.38 0.38 0.38 0.38 0.37 0.38 0.39
0.97 1.00 1.02 1.03 1.03 1.03 1.04 1.05 1.06 1.05 1.04 0.99 0.91 0.73 0.53 0.54 0.46 0.44 0.58 0.63 0.68 0.70 0.65 0.65 0.64 0.60 0.58 0.64 0.68 0.67 0.60 0.63 0.67 0.65 0.67 0.75 0.66 0.57 0.50 0.50 0.46 0.42 0.44 0.47 0.45 0.52 0.49 0.40 0.40 0.44 0.45 0.46 0.45 0.45 0.44 0.43 0.44 0.41 0.39 0.37 0.35 0.36 0.33 0.39 0.39 0.42 0.43 0.36 0.34 0.37 0.35 0.34 0.35 0.37 0.38 0.40 0.39 0.37 0.38 0.38 0.37 0.38 0.39 0.38 0.37 0.37 0.38 0.39
1.02 1.04 1.05 1.05 1.05 1.05 1.06 1.07 1.07 1.06 1.05 0.99 0.86 0.69 0.69 0.70 0.76 0.81 0.71 0.52 0.65 0.71 0.70 0.69 0.72 0.65 0.73 0.71 0.76 0.76 0.71 0.60 0.61 0.66 0.73 0.72 0.63 0.52 0.52 0.50 0.46 0.43 0.49 0.50 0.49 0.45 0.42 0.39 0.45 0.49 0.51 0.50 0.48 0.48 0.47 0.44 0.42 0.42 0.39 0.38 0.35 0.36 0.39 0.41 0.41 0.43 0.41 0.37 0.32 0.34 0.31 0.32 0.34 0.36 0.38 0.38 0.38 0.39 0.41 0.40 0.39 0.38 0.38 0.38 0.38 0.38 0.38 0.38
1.05 1.08 1.09 1.09 1.08 1.08 1.08 1.09 1.07 1.07 0.99 0.86 0.76 0.76 0.74 0.85 0.91 0.93 0.86 0.69 0.60 0.73 0.70 0.70 0.66 0.67 0.69 0.79 0.79 0.80 0.63 0.57 0.54 0.63 0.66 0.69 0.61 0.57 0.55 0.51 0.50 0.50 0.51 0.51 0.44 0.43 0.40 0.44 0.51 0.54 0.53 0.50 0.49 0.49 0.48 0.46 0.44 0.41 0.39 0.36 0.34 0.38 0.35 0.31 0.38 0.39 0.38 0.35 0.32 0.34 0.31 0.33 0.35 0.37 0.38 0.40 0.40 0.40 0.42 0.41 0.40 0.40 0.38 0.37 0.37 0.38 0.37 0.37
1.09 1.13 1.14 1.14 1.14 1.13 1.14 1.11 1.12 1.02 0.93 0.89 0.85 0.83 0.93 0.97 0.98 0.94 0.80 0.61 0.55 0.64 0.72 0.75 0.75 0.73 0.71 0.69 0.81 0.76 0.65 0.63 0.64 0.60 0.74 0.67 0.59 0.63 0.57 0.55 0.52 0.52 0.49 0.51 0.50 0.46 0.44 0.51 0.57 0.55 0.53 0.51 0.47 0.48 0.46 0.43 0.40 0.42 0.41 0.39 0.37 0.37 0.37 0.35 0.34 0.38 0.39 0.38 0.38 0.34 0.30 0.30 0.33 0.32 0.34 0.38 0.40 0.39 0.40 0.40 0.39 0.39 0.39 0.39 0.39 0.38 0.37 0.35
1.12 1.14 1.17 1.18 1.19 1.21 1.17 1.16 0.98 0.93 1.00 0.95 0.91 1.06 1.05 1.04 1.02 0.98 0.77 0.66 0.62 0.59 0.82 0.77 0.81 0.76 0.79 0.90 0.85 0.69 0.69 0.70 0.70 0.75 0.79 0.73 0.64 0.61 0.56 0.62 0.56 0.49 0.52 0.55 0.53 0.49 0.49 0.57 0.59 0.54 0.52 0.52 0.49 0.45 0.45 0.44 0.38 0.40 0.42 0.41 0.40 0.40 0.37 0.37 0.37 0.34 0.31 0.30 0.35 0.32 0.23 0.22 0.30 0.32 0.32 0.35 0.37 0.36 0.39 0.37 0.36 0.36 0.36 0.36 0.35 0.35 0.36 0.36
1.13 1.15 1.18 1.20 1.22 1.22 1.25 0.98 0.95 1.05 0.98 0.89 0.98 1.09 1.09 1.08 1.05 1.00 0.79 0.57 0.43 0.55 0.70 0.54 0.81 0.64 0.86 0.71 0.76 0.74 0.73 0.60 0.75 0.80 0.82 0.80 0.82 0.69 0.63 0.57 0.59 0.49 0.55 0.55 0.52 0.51 0.51 0.58 0.56 0.53 0.52 0.50 0.49 0.46 0.48 0.46 0.39 0.37 0.37 0.44 0.42 0.39 0.37 0.36 0.34 0.33 0.26 0.24 0.31 0.36 0.24 0.19 0.29 0.29 0.32 0.34 0.35 0.34 0.37 0.35 0.34 0.34 0.35 0.35 0.34 0.35 0.35 0.35
1.14 1.15 1.20 1.21 1.22 1.25 1.02 0.84 1.13 1.10 0.89 0.93 1.12 1.13 1.11 1.10 1.09 0.99 0.69 0.50 0.39 0.55 0.53 0.70 0.68 0.67 0.77 0.70 0.73 0.76 0.47 0.52 0.76 0.81 0.79 0.82 0.71 0.78 0.61 0.57 0.60 0.62 0.62 0.60 0.53 0.44 0.54 0.54 0.54 0.54 0.51 0.48 0.46 0.43 0.48 0.47 0.40 0.35 0.44 0.44 0.42 0.39 0.36 0.36 0.35 0.33 0.30 0.35 0.35 0.35 0.32 0.23 0.21 0.28 0.34 0.35 0.33 0.33 0.33 0.34 0.33 0.34 0.34 0.35 0.35 0.36 0.36 0.37
1.17 1.20 1.23 1.26 1.26 1.24 1.06 1.13 1.09 0.99 0.99 1.13 1.20 1.17 1.15 1.16 1.13 1.02 0.67 0.37 0.32 0.64 0.52 0.62 0.66 0.81 0.72 0.71 0.75 0.64 0.60 0.68 0.56 0.67 0.79 0.80 0.79 0.69 0.66 0.57 0.56 0.57 0.60 0.57 0.39 0.51 0.54 0.50 0.51 0.49 0.49 0.47 0.44 0.47 0.49 0.48 0.41 0.40 0.45 0.44 0.40 0.39 0.38 0.37 0.35 0.33 0.33 0.31 0.26 0.31 0.34 0.24 0.21 0.27 0.35 0.34 0.30 0.30 0.31 0.32 0.33 0.34 0.35 0.36 0.36 0.37 0.38 0.38
1.22 1.26 1.29 1.31 1.32 1.31 1.30 1.17 1.12 1.03 1.20 1.26 1.24 1.21 1.20 1.17 1.02 0.77 0.56 0.37 0.53 0.55 0.80 0.57 0.82 0.69 0.66 0.70 0.64 0.64 0.63 0.65 0.53 0.65 0.76 0.78 0.78 0.69 0.58 0.61 0.60 0.58 0.59 0.56 0.46 0.51 0.54 0.54 0.53 0.52 0.48 0.44 0.49 0.51 0.50 0.48 0.40 0.45 0.47 0.46 0.43 0.41 0.39 0.37 0.35 0.33 0.32 0.28 0.22 0.28 0.32 0.23 0.20 0.27 0.29 0.33 0.29 0.27 0.29 0.33 0.34 0.35 0.36 0.36 0.37 0.38 0.39 0.40
1.25 1.28 1.30 1.34 1.35 1.29 1.25 1.27 1.16 1.29 1.31 1.28 1.24 1.22 1.19 1.05 0.84 0.58 0.46 0.31 0.56 0.44 0.59 0.62 0.60 0.54 0.62 0.55 0.56 0.60 0.57 0.60 0.64 0.66 0.69 0.65 0.67 0.70 0.65 0.70 0.60 0.55 0.52 0.55 0.52 0.54 0.55 0.58 0.60 0.53 0.48 0.49 0.50 0.51 0.51 0.49 0.48 0.49 0.46 0.42 0.40 0.40 0.38 0.39 0.37 0.35 0.31 0.22 0.24 0.30 0.31 0.28 0.19 0.23 0.26 0.26 0.27 0.30 0.31 0.33 0.35 0.37 0.37 0.38 0.39 0.39 0.39 0.40
1.26 1.30 1.31 1.35 1.19 1.23 1.23 1.05 1.18 1.32 1.31 1.29 1.25 1.19 1.06 0.88 0.63 0.49 0.35 0.41 0.56 0.51 0.58 0.57 0.51 0.59 0.54 0.50 0.47 0.57 0.57 0.58 0.59 0.61 0.57 0.64 0.60 0.62 0.59 0.57 0.61 0.53 0.50 0.49 0.48 0.50 0.53 0.53 0.51 0.53 0.57 0.53 0.52 0.48 0.51 0.52 0.50 0.47 0.42 0.39 0.38 0.36 0.37 0.35 0.34 0.35 0.25 0.19 0.27 0.30 0.30 0.29 0.19 0.21 0.27 0.32 0.34 0.34 0.33 0.32 0.34 0.36 0.37 0.38 0.39 0.39 0.40 0.40
1.29 1.32 1.34 1.32 1.32 1.35 1.07 0.98 1.25 1.33 1.30 1.29 1.21 1.03 0.85 0.57 0.65 0.42 0.36 0.64 0.43 0.49 0.50 0.50 0.56 0.54 0.54 0.56 0.53 0.53 0.52 0.55 0.58 0.57 0.53 0.54 0.52 0.51 0.52 0.45 0.49 0.40 0.38 0.41 0.40 0.49 0.45 0.47 0.53 0.53 0.56 0.51 0.47 0.44 0.45 0.48 0.47 0.44 0.42 0.39 0.32 0.28 0.29 0.24 0.27 0.23 0.22 0.20 0.27 0.31 0.30 0.25 0.22 0.25 0.29 0.32 0.34 0.36 0.37 0.37 0.37 0.38 0.39 0.39 0.39 0.39 0.40 0.40
1.32 1.34 1.37 1.36 1.36 1.25 1.25 1.29 1.34 1.31 1.29 1.25 1.11 0.96 0.69 0.52 0.37 0.44 0.48 0.53 0.47 0.55 0.52 0.59 0.54 0.54 0.54 0.52 0.49 0.53 0.57 0.49 0.56 0.55 0.56 0.55 0.51 0.51 0.54 0.51 0.51 0.46 0.34 0.41 0.40 0.39 0.41 0.49 0.49 0.49 0.50 0.52 0.49 0.39 0.39 0.39 0.43 0.42 0.38 0.36 0.31 0.25 0.24 0.20 0.22 0.24 0.23 0.26 0.30 0.29 0.32 0.23 0.25 0.28 0.33 0.33 0.36 0.38 0.39 0.40 0.41 0.41 0.40 0.39 0.39 0.39 0.39 0.39
1.36 1.38 1.30 1.34 1.35 1.34 1.35 1.37 1.36 1.35 1.24 1.17 0.98 0.79 0.66 0.47 0.38 0.55 0.52 0.54 0.54 0.62 0.59 0.55 0.55 0.54 0.53 0.47 0.50 0.53 0.48 0.53 0.52 0.51 0.53 0.48 0.49 0.44 0.49 0.52 0.51 0.46 0.44 0.41 0.36 0.37 0.31 0.31 0.39 0.45 0.40 0.51 0.48 0.45 0.44 0.41 0.42 0.41 0.43 0.39 0.33 0.31 0.25 0.20 0.20 0.19 0.19 0.21 0.24 0.30 0.25 0.20 0.19 0.22 0.35 0.36 0.39 0.40 0.41 0.41 0.42 0.42 0.41 0.41 0.41 0.41 0.40 0.39
1.38 1.38 1.37 1.37 1.36 1.39 1.39 1.40 1.37 1.35 1.25 1.09 0.86 0.69 0.49 0.42 0.47 0.46 0.48 0.54 0.60 0.61 0.56 0.60 0.53 0.51 0.48 0.50 0.53 0.55 0.53 0.47 0.54 0.51 0.49 0.46 0.42 0.44 0.43 0.45 0.50 0.49 0.46 0.36 0.39 0.38 0.35 0.35 0.41 0.50 0.49 0.50 0.45 0.50 0.50 0.45 0.42 0.43 0.43 0.42 0.35 0.31 0.36 0.25 0.26 0.24 0.23 0.23 0.22 0.24 0.22 0.25 0.24 0.34 0.37 0.39 0.40 0.40 0.41 0.41 0.42 0.41 0.42 0.41 0.40 0.39 0.39 0.39
1.37 1.32 1.38 1.26 1.25 1.33 1.41 1.41 1.40 1.34 1.19 0.96 0.74 0.58 0.48 0.47 0.44 0.55 0.54 0.65 0.63 0.56 0.56 0.58 0.56 0.50 0.48 0.48 0.54 0.51 0.58 0.51 0.52 0.50 0.47 0.47 0.47 0.43 0.48 0.47 0.47 0.49 0.43 0.37 0.39 0.33 0.36 0.32 0.45 0.48 0.51 0.49 0.48 0.49 0.48 0.47 0.31 0.38 0.39 0.32 0.35 0.42 0.36 0.31 0.30 0.30 0.29 0.26 0.20 0.26 0.25 0.27 0.33 0.34 0.36 0.38 0.38 0.39 0.41 0.41 0.41 0.40 0.39 0.38 0.36 0.36 0.37 0.37
1.24 1.28 1.13 1.18 1.22 1.36 1.41 1.40 1.39 1.27 1.13 0.89 0.68 0.53 0.56 0.60 0.65 0.61 0.65 0.62 0.62 0.64 0.58 0.48 0.48 0.48 0.45 0.45 0.48 0.51 0.53 0.55 0.51 0.48 0.42 0.49 0.44 0.47 0.46 0.48 0.52 0.50 0.50 0.46 0.40 0.45 0.34 0.33 0.45 0.44 0.42 0.50 0.52 0.51 0.49 0.48 0.46 0.40 0.32 0.35 0.44 0.46 0.41 0.33 0.24 0.26 0.24 0.20 0.20 0.25 0.21 0.23 0.24 0.20 0.33 0.36 0.36 0.38 0.39 0.38 0.39 0.39 0.39 0.38 0.37 0.37 0.37 0.37
1.20 1.17 1.16 1.15 1.23 1.37 1.42 1.42 1.34 1.19 1.01 0.80 0.62 0.60 0.70 0.60 0.71 0.67 0.71 0.69 0.66 0.64 0.57 0.54 0.54 0.57 0.48 0.48 0.47 0.49 0.53 0.47 0.47 0.48 0.42 0.47 0.40 0.51 0.47 0.47 0.53 0.51 0.52 0.53 0.43 0.42 0.44 0.33 0.39 0.46 0.45 0.48 0.51 0.49 0.44 0.48 0.49 0.40 0.36 0.45 0.34 0.29 0.28 0.34 0.30 0.21 0.20 0.20 0.21 0.23 0.24 0.24 0.25 0.25 0.31 0.32 0.34 0.35 0.37 0.39 0.39 0.39 0.39 0.38 0.37 0.36 0.37 0.37
1.19 1.11 0.95 1.11 1.33 1.39 1.38 1.38 1.25 1.05 0.85 0.67 0.62 0.57 0.66 0.68 0.76 0.73 0.73 0.72 0.72 0.64 0.56 0.57 0.54 0.56 0.54 0.49 0.51 0.54 0.53 0.46 0.50 0.47 0.43 0.45 0.40 0.50 0.50 0.51 0.49 0.55 0.55 0.53 0.45 0.45 0.46 0.33 0.34 0.46 0.45 0.47 0.48 0.45 0.33 0.38 0.46 0.48 0.47 0.41 0.43 0.37 0.32 0.29 0.29 0.29 0.27 0.22 0.22 0.21 0.24 0.20 0.27 0.30 0.32 0.33 0.35 0.35 0.37 0.38 0.38 0.38 0.38 0.37 0.36 0.35 0.35 0.35
1.05 0.93 0.87 1.16 1.30 1.36 1.36 1.28 1.06 0.92 0.77 0.59 0.59 0.62 0.72 0.66 0.73 0.79 0.79 0.75 0.68 0.65 0.60 0.59 0.62 0.56 0.57 0.55 0.56 0.52 0.56 0.54 0.51 0.49 0.48 0.48 0.45 0.55 0.50 0.57 0.49 0.51 0.54 0.53 0.47 0.51 0.42 0.44 0.31 0.41 0.50 0.47 0.37 0.41 0.37 0.38 0.36 0.39 0.38 0.36 0.38 0.37 0.42 0.38 0.37 0.30 0.27 0.25 0.25 0.23 0.21 0.23 0.29 0.35 0.35 0.36 0.37 0.37 0.38 0.37 0.38 0.38 0.38 0.37 0.35 0.34 0.34 0.35
1.08 0.90 0.89 1.20 1.27 1.34 1.28 1.07 0.85 0.73 0.67 0.70 0.73 0.66 0.70 0.66 0.72 0.75 0.79 0.81 0.75 0.81 0.68 0.65 0.63 0.58 0.59 0.57 0.56 0.60 0.54 0.53 0.50 0.46 0.46 0.47 0.46 0.40 0.53 0.53 0.54 0.50 0.55 0.53 0.49 0.50 0.44 0.42 0.35 0.40 0.40 0.38 0.39 0.47 0.45 0.44 0.43 0.40 0.38 0.35 0.36 0.34 0.32 0.29 0.27 0.37 0.34 0.30 0.26 0.25 0.23 0.27 0.33 0.40 0.39 0.39 0.39 0.40 0.40 0.39 0.39 0.39 0.38 0.37 0.36 0.36 0.36 0.36
0.91 0.72 0.81 1.18 1.23 1.24 1.03 0.75 0.75 0.80 0.73 0.64 0.61 0.69 0.67 0.78 0.71 0.72 0.75 0.79 0.77 0.70 0.80 0.70 0.69 0.64 0.62 0.59 0.59 0.57 0.53 0.49 0.49 0.46 0.47 0.43 0.49 0.48 0.54 0.60 0.57 0.57 0.51 0.46 0.47 0.54 0.51 0.47 0.41 0.36 0.37 0.39 0.44 0.49 0.52 0.51 0.49 0.46 0.44 0.39 0.42 0.41 0.39 0.33 0.26 0.29 0.35 0.34 0.35 0.32 0.27 0.27 0.36 0.41 0.40 0.40 0.40 0.40 0.40 0.39 0.38 0.38 0.38 0.39 0.38 0.37 0.37 0.38
0.85 0.77 1.05 1.16 1.22 1.13 0.90 0.70 0.73 0.71 0.67 0.71 0.80 0.77 0.78 0.74 0.71 0.74 0.70 0.74 0.68 0.75 0.69 0.66 0.64 0.62 0.64 0.60 0.59 0.56 0.55 0.49 0.50 0.46 0.49 0.50 0.50 0.54 0.60 0.60 0.59 0.56 0.56 0.51 0.53 0.55 0.55 0.44 0.38 0.39 0.44 0.47 0.49 0.51 0.52 0.52 0.50 0.46 0.46 0.48 0.45 0.40 0.41 0.37 0.34 0.36 0.32 0.33 0.30 0.29 0.26 0.27 0.36 0.42 0.39 0.38 0.39 0.40 0.40 0.39 0.38 0.38 0.39 0.38 0.36 0.34 0.34 0.34
0.86 0.84 0.90 1.12 1.20 1.08 0.79 0.57 0.57 0.61 0.66 0.73 0.74 0.71 0.79 0.73 0.71 0.69 0.68 0.71 0.68 0.67 0.64 0.64 0.67 0.69 0.61 0.66 0.62 0.54 0.59 0.45 0.53 0.51 0.49 0.54 0.50 0.64 0.62 0.61 0.62 0.55 0.53 0.52 0.47 0.58 0.43 0.47 0.41 0.35 0.35 0.38 0.42 0.46 0.46 0.51 0.50 0.45 0.44 0.46 0.47 0.45 0.43 0.42 0.41 0.41 0.32 0.32 0.30 0.28 0.21 0.23 0.35 0.39 0.38 0.38 0.40 0.39 0.39 0.41 0.40 0.37 0.36 0.35 0.34 0.34 0.34 0.35
0.85 0.89 0.89 0.96 1.09 1.00 0.70 0.70 0.64 0.62 0.63 0.64 0.66 0.64 0.68 0.71 0.76 0.74 0.71 0.68 0.74 0.71 0.68 0.64 0.67 0.69 0.65 0.67 0.61 0.61 0.61 0.53 0.48 0.56 0.54 0.54 0.54 0.66 0.66 0.64 0.65 0.59 0.61 0.64 0.61 0.64 0.49 0.46 0.42 0.32 0.28 0.25 0.24 0.26 0.30 0.35 0.41 0.45 0.46 0.44 0.44 0.42 0.39 0.37 0.32 0.33 0.28 0.31 0.32 0.27 0.23 0.30 0.37 0.38 0.37 0.39 0.40 0.40 0.41 0.39 0.38 0.37 0.35 0.34 0.34 0.35 0.35 0.35
0.74 0.59 0.75 0.80 0.90 0.87 0.83 0.87 0.76 0.67 0.63 0.63 0.61 0.64 0.67 0.63 0.71 0.77 0.76 0.71 0.74 0.73 0.71 0.70 0.72 0.72 0.65 0.63 0.58 0.56 0.55 0.60 0.53 0.50 0.53 0.51 0.56 0.62 0.66 0.68 0.67 0.65 0.67 0.68 0.67 0.64 0.53 0.52 0.49 0.43 0.38 0.34 0.35 0.39 0.43 0.44 0.42 0.37 0.39 0.40 0.39 0.41 0.40 0.39 0.36 0.31 0.26 0.28 0.27 0.26 0.26 0.29 0.31 0.33 0.36 0.39 0.38 0.36 0.35 0.36 0.35 0.34 0.34 0.34 0.34 0.35 0.35 0.33
0.79 0.63 0.65 0.60 0.75 0.76 0.72 0.78 0.72 0.71 0.62 0.68 0.57 0.62 0.59 0.62 0.66 0.70 0.80 0.65 0.74 0.72 0.71 0.70 0.67 0.61 0.61 0.60 0.56 0.54 0.57 0.55 0.59 0.56 0.52 0.52 0.58 0.61 0.66 0.66 0.66 0.66 0.66 0.65 0.67 0.63 0.53 0.46 0.47 0.47 0.46 0.45 0.46 0.44 0.44 0.44 0.38 0.39 0.37 0.35 0.37 0.36 0.36 0.33 0.29 0.26 0.31 0.28 0.23 0.27 0.30 0.29 0.28 0.31 0.33 0.35 0.36 0.35 0.35 0.35 0.33 0.32 0.31 0.31 0.31 0.30 0.29 0.26
0.62 0.68 0.73 0.76 0.63 0.57 0.60 0.62 0.72 0.69 0.70 0.70 0.62 0.65 0.60 0.60 0.62 0.58 0.71 0.74 0.74 0.76 0.63 0.66 0.67 0.66 0.64 0.60 0.59 0.51 0.53 0.53 0.54 0.50 0.55 0.56 0.54 0.58 0.57 0.61 0.58 0.62 0.62 0.58 0.62 0.55 0.47 0.40 0.44 0.44 0.42 0.44 0.45 0.44 0.44 0.42 0.41 0.39 0.37 0.35 0.33 0.34 0.33 0.30 0.30 0.31 0.29 0.24 0.20 0.24 0.28 0.26 0.27 0.28 0.31 0.34 0.34 0.33 0.33 0.30 0.29 0.28 0.27 0.25 0.23 0.20 0.18 0.19
0.74 0.72 0.72 0.77 0.63 0.66 0.66 0.67 0.70 0.68 0.65 0.67 0.63 0.62 0.56 0.58 0.57 0.63 0.63 0.63 0.67 0.65 0.67 0.53 0.57 0.61 0.63 0.65 0.60 0.53 0.53 0.46 0.45 0.53 0.52 0.51 0.52 0.51 0.50 0.54 0.59 0.62 0.59 0.57 0.57 0.58 0.50 0.43 0.43 0.44 0.41 0.42 0.43 0.43 0.43 0.40 0.38 0.37 0.34 0.33 0.33 0.32 0.31 0.31 0.29 0.29 0.30 0.28 0.30 0.29 0.29 0.27 0.28 0.28 0.29 0.29 0.29 0.27 0.25 0.24 0.22 0.20 0.19 0.17 0.17 0.16 0.18 0.20
0.63 0.62 0.61 0.71 0.69 0.65 0.66 0.67 0.66 0.65 0.59 0.65 0.56 0.59 0.58 0.56 0.55 0.61 0.65 0.61 0.55 0.59 0.69 0.59 0.58 0.62 0.64 0.63 0.61 0.54 0.53 0.53 0.50 0.47 0.55 0.53 0.52 0.54 0.50 0.50 0.48 0.55 0.57 0.53 0.54 0.56 0.48 0.39 0.44 0.42 0.39 0.38 0.40 0.41 0.40 0.38 0.35 0.31 0.31 0.31 0.31 0.31 0.32 0.31 0.29 0.30 0.30 0.29 0.29 0.29 0.27 0.25 0.27 0.28 0.26 0.24 0.23 0.22 0.20 0.17 0.15 0.16 0.16 0.17 0.17 0.18 0.20 0.21
0.69 0.73 0.70 0.61 0.56 0.61 0.63 0.63 0.61 0.60 0.56 0.59 0.55 0.56 0.58 0.58 0.56 0.60 0.60 0.68 0.61 0.57 0.61 0.58 0.61 0.62 0.64 0.62 0.60 0.58 0.60 0.59 0.59 0.56 0.57 0.56 0.47 0.52 0.48 0.47 0.51 0.46 0.47 0.46 0.47 0.47 0.46 0.39 0.42 0.39 0.33 0.32 0.35 0.35 0.35 0.34 0.31 0.29 0.26 0.27 0.28 0.28 0.25 0.25 0.25 0.28 0.27 0.25 0.26 0.26 0.22 0.19 0.17 0.17 0.18 0.17 0.15 0.14 0.12 0.13 0.14 0.15 0.17 0.18 0.18 0.19 0.20 0.20
0.71 0.72 0.72 0.64 0.52 0.59 0.55 0.59 0.60 0.57 0.50 0.55 0.57 0.57 0.56 0.56 0.60 0.63 0.55 0.65 0.67 0.67 0.65 0.64 0.63 0.60 0.57 0.57 0.55 0.56 0.60 0.63 0.62 0.61 0.61 0.61 0.61 0.59 0.59 0.56 0.53 0.47 0.44 0.44 0.47 0.43 0.42 0.38 0.34 0.33 0.29 0.28 0.31 0.32 0.31 0.31 0.29 0.25 0.22 0.23 0.27 0.27 0.27 0.28 0.28 0.28 0.26 0.24 0.19 0.15 0.12 0.13 0.14 0.15 0.13 0.12 0.12 0.13 0.14 0.14 0.15 0.16 0.18 0.19 0.18 0.19 0.19 0.19
Wind_Speed
12 12 12 11 11 11 10 10 10 9 9 9 9 9 9 9 9 9 9 9 9 10 10 10 10 10 10 10 10 10 10 10 10 10 10 10 9 8 8 7 7 7 7 7 7 7 8 8 8 9 8 8 8 9 9 9 8 8 8 8 9 9 8 8 7 8 7 9 11 11 10 10 12 12 12 11 12 13 13 14 13 13 13 13 13 13 13 13
14 13 13 12 12 12 12 11 11 11 10 10 10 10 10 10 10 10 10 10 11 11 11 11 11 11 11 11 11 11 11 11 11 11 11 10 8 8 8 7 7 8 8 9 8 8 8 9 9 8 8 8 9 9 9 9 8 8 8 9 10 9 9 8 8 8 8 10 11 11 11 10 11 12 11 11 13 14 14 15 14 13 14 14 14 14 14 14
15 14 14 14 13 13 13 12 12 12 11 11 11 11 11 11 11 11 11 12 12 12 12 12 12 12 12 12 12 12 12 12 12 12 10 8 7 7 8 8 8 9 10 10 10 9 9 10 9 8 8 9 9 10 10 10 10 9 8 9 11 10 10 10 9 10 10 10 11 11 11 11 12 12 11 11 13 14 13 14 13 14 15 15 15 15 15 14
16 16 15 15 15 14 14 14 13 13 13 13 12 12 12 13 13 13 13 13 13 13 13 13 13 13 13 13 13 12 12 12 12 10 9 8 8 8 9 9 9 10 10 10 10 10 9 9 9 9 9 10 11 10 11 11 11 10 9 9 11 9 10 11 11 11 11 10 11 11 11 12 13 11 11 11 13 14 14 14 13 15 16 16 16 15 15 15
18 17 17 16 16 16 15 15 14 14 14 14 14 14 14 14 14 14 14 14 14 14 14 14 14 13 13 13 13 12 11 10 10 10 9 9 9 10 10 10 10 10 10 10 10 10 10 9 9 9 10 11 11 11 12 12 10 10 11 11 11 9 10 12 11 11 11 11 12 12 12 13 13 12 12 12 12 13 15 15 15 16 16 16 15 15 15 14
19 18 18 18 17 17 16 16 16 15 15 15 15 15 15 15 15 15 15 15 15 15 15 15 15 14 14 14 13 12 11 10 11 10 11 12 11 11 11 11 11 12 11 11 11 11 11 10 10 11 11 12 12 12 13 12 11 11 12 12 12 11 11 13 12 12 12 12 13 13 13 13 13 14 13 13 14 15 16 15 16 16 15 14 14 14 14 14
20 20 19 19 18 18 18 17 17 17 17 17 17 17 17 17 17 16 16 16 16 16 16 15 15 15 15 14 13 12 12 13 14 13 13 13 13 13 12 13 13 13 12 12 12 12 12 11 12 12 12 12 13 13 13 12 12 11 12 13 13 12 12 14 14 14 14 14 15 14 15 14 13 14 14 14 16 16 16 15 14 14 13 13 13 14 14 14
21 21 21 20 20 19 19 19 18 18 18 18 18 18 18 18 17 17 17 17 16 16 16 16 16 15 15 14 14 13 14 16 15 15 15 14 14 14 14 14 14 14 13 13 13 13 13 13 13 13 12 13 13 12 12 12 12 11 13 13 13 13 14 15 15 16 16 16 16 15 15 15 14 14 14 16 17 15 15 13 13 12 13 13 14 14 15 15
23 22 22 21 21 21 20 20 20 19 19 19 19 19 18 18 18 18 17 17 17 17 17 16 16 16 15 14 14 14 16 16 16 15 15 15 15 15 15 15 15 14 14 14 14 13 14 14 14 13 13 13 13 13 12 12 13 12 13 13 14 15 16 16 16 17 17 17 15 15 17 16 14 13 13 16 15 14 14 13 13 12 13 14 15 15 15 15
24 24 23 23 22 22 21 21 21 20 20 20 20 19 19 19 19 18 18 18 18 17 17 17 17 17 16 15 14 14 16 16 15 16 15 15 15 15 15 15 15 14 13 14 14 13 14 14 14 13 13 13 12 13 12 12 13 13 13 15 16 17 17 16 17 18 17 17 16 15 17 16 14 13 13 14 13 13 14 13 13 13 14 15 15 16 16 16
25 25 24 24 23 23 23 22 22 21 21 21 20 20 20 20 19 19 19 19 19 18 18 18 18 17 17 16 15 16 17 16 16 16 16 16 15 15 15 15 15 14 14 14 15 15 14 15 13 13 13 13 13 13 14 14 14 14 15 16 17 17 17 17 17 18 16 16 16 14 15 14 13 12 14 14 13 13 14 13 14 14 14 15 15 16 16 16
26 26 25 25 24 24 24 23 23 22 22 22 21 21 21 21 20 20 20 20 19 19 19 19 18 18 18 17 18 19 19 18 18 17 17 16 16 16 16 16 16 15 15 15 16 16 16 15 14 14 15 14 14 14 15 15 15 15 15 16 17 16 17 17 16 16 14 14 14 13 14 14 12 13 15 15 14 14 14 14 14 14 14 15 15 16 16 16
27 27 26 25 25 25 24 24 23 23 23 23 22 22 22 22 21 21 21 20 20 20 20 20 19 19 18 18 20 20 19 19 18 18 18 17 17 17 17 17 17 17 17 16 16 16 16 16 15 15 15 14 15 15 15 15 15 16 16 15 17 16 16 16 14 14 14 15 14 13 15 15 14 16 16 16 16 15 14 15 14 14 14 15 15 15 16 16
28 28 27 26 26 25 25 25 24 24 24 23 23 23 23 22 22 22 21 21 21 21 21 20 20 20 19 19 20 20 20 19 19 19 19 18 18 18 18 17 17 17 17 17 17 16 16 16 15 16 16 15 16 16 16 16 16 17 16 16 16 15 16 16 14 14 15 15 14 13 15 15 15 16 17 16 16 15 15 15 14 14 14 14 15 15 15 14
29 29 28 27 27 27 26 26 25 25 24 24 24 23 23 23 23 23 22 22 22 21 21 21 21 20 20 20 20 20 20 20 20 20 20 19 19 19 19 18 18 18 17 17 17 16 16 16 16 16 16 16 15 15 16 17 16 16 17 17 16 15 17 17 16 15 15 15 14 13 15 16 15 17 16 15 17 16 15 14 14 14 14 14 14 14 14 13
30 30 29 28 28 27 27 26 26 25 25 25 24 24 24 24 24 23 23 22 22 22 21 21 21 20 20 20 20 19 20 20 20 21 20 20 19 19 18 17 17 17 17 17 17 17 16 16 16 16 16 15 14 15 16 17 17 17 16 17 17 16 17 17 16 15 15 15 15 15 16 16 16 16 16 16 17 16 14 13 13 13 14 14 13 12 12 12
31 31 30 29 29 28 27 27 26 26 25 25 25 25 25 24 24 23 23 22 22 22 22 21 21 21 21 20 20 20 20 20 20 20 20 20 19 18 18 17 18 18 17 17 17 17 17 17 16 17 16 15 15 15 16 17 18 17 16 17 17 17 17 17 16 16 15 15 16 16 16 18 18 18 18 18 17 14 13 13 13 13 13 13 12 11 12 12
32 32 31 30 30 29 28 28 27 26 26 26 25 25 25 24 24 24 23 23 22 22 22 22 20 21 22 21 21 20 20 20 20 20 19 19 19 18 18 18 18 17 17 17 18 18 18 17 17 17 16 16 16 16 17 18 17 17 17 17 18 18 18 18 18 18 17 16 17 17 18 20 20 19 18 17 15 13 12 12 12 13 13 12 11 11 12 13
33 32 32 31 31 30 29 28 27 27 26 26 25 25 24 24 24 24 24 24 23 22 22 22 21 21 21 21 20 20 19 19 19 20 19 19 18 18 18 18 17 17 17 18 18 18 17 17 16 17 17 18 18 17 19 18 17 18 18 18 18 19 20 19 19 19 18 18 19 19 19 20 20 18 17 16 14 12 12 12 12 12 12 11 11 12 13 14
33 32 32 32 31 30 29 28 28 27 26 26 26 25 25 24 24 24 25 25 25 24 24 24 23 23 22 21 21 20 20 20 20 21 21 20 20 19 19 18 18 18 18 18 19 18 17 18 18 19 19 19 19 19 19 18 17 18 18 19 20 21 21 20 20 20 18 19 20 19 19 20 19 17 16 16 14 12 12 12 12 12 12 12 12 13 14 15
33 33 32 32 31 30 30 29 28 28 27 26 26 25 25 25 24 25 25 26 27 27 27 26 25 26 25 23 22 22 22 22 22 22 22 21 20 20 20 19 18 19 20 19 19 19 18 19 21 21 20 19 19 19 20 20 19 19 20 21 21 22 22 21 20 20 18 19 20 18 18 20 19 16 15 15 14 14 14 13 12 12 12 12 13 14 15 16
34 33 32 31 31 30 30 29 28 28 27 27 26 26 26 26 25 26 25 26 27 27 28 28 27 27 26 25 25 24 23 23 23 23 23 22 21 22 21 20 20 21 21 20 19 20 21 22 24 22 19 18 18 19 20 21 21 20 20 21 22 21 22 21 20 19 18 18 19 18 17 20 19 16 15 15 14 15 15 13 13 13 12 13 14 15 16 17
34 34 32 32 31 30 30 29 28 28 27 27 26 26 26 26 26 26 25 26 27 27 27 28 28 29 28 27 27 26 25 24 24 24 24 22 22 23 22 21 21 21 22 22 21 22 23 23 23 20 17 18 19 19 18 20 21 21 20 21 22 21 20 20 19 18 18 18 19 19 19 20 19 16 15 15 15 14 14 13 13 14 14 15 15 16 17 17
35 34 33 32 31 31 30 29 29 28 28 27 27 27 26 26 25 25 25 26 27 27 27 28 28 29 29 28 27 27 27 26 24 24 24 24 23 23 23 23 22 22 23 24 23 24 25 24 21 19 18 20 21 20 18 19 21 22 22 21 22 21 20 20 19 19 19 19 19 19 21 21 19 18 17 16 15 14 15 14 15 16 16 16 16 17 18 17
36 35 34 33 32 31 30 30 29 28 28 27 27 27 26 25 25 25 24 26 28 27 26 27 27 28 28 27 26 26 26 26 25 24 24 25 24 23 24 24 23 24 24 23 23 25 26 23 20 19 20 20 21 21 20 20 21 22 22 22 22 21 20 20 19 19 19 20 19 18 19 20 18 18 17 16 16 17 17 17 16 17 17 17 17 18 18 18
38 37 35 34 33 31 30 30 29 28 28 28 28 27 26 25 24 24 23 25 29 28 25 26 26 26 26 25 25 23 24 26 25 24 24 25 26 24 24 24 23 24 23 22 23 25 25 23 21 20 20 20 21 22 22 20 20 21 21 20 20 19 19 19 18 18 19 19 19 17 18 20 20 19 19 18 18 19 19 18 17 17 17 17 18 18 19 19
39 38 36 35 34 32 31 30 29 28 28 28 27 26 26 25 24 23 23 24 28 26 23 24 24 24 23 22 22 21 23 24 22 23 24 25 26 24 24 24 23 24 22 21 23 24 23 22 21 21 20 20 21 22 21 19 18 20 20 17 17 17 17 18 17 18 20 20 20 19 18 22 23 22 22 20 19 20 20 19 18 18 18 18 19 19 20 20
40 39 37 36 35 35 33 30 30 29 28 28 27 26 25 25 24 23 21 23 25 22 21 22 22 21 21 20 20 21 22 22 20 22 23 23 25 24 24 25 24 23 22 22 24 24 22 21 21 21 20 21 21 21 20 18 18 20 18 16 16 16 16 17 17 18 20 20 22 21 20 22 24 23 23 20 21 22 20 19 19 19 20 20 20 21 21 20
40 39 38 38 37 37 34 32 31 30 29 27 26 26 25 24 24 22 21 24 24 23 22 22 21 21 20 20 21 21 22 23 22 23 22 22 23 22 23 24 23 22 23 23 25 23 22 22 21 19 20 21 20 19 19 19 19 18 16 15 15 16 16 17 17 18 20 21 22 22 20 21 24 25 23 21 22 22 20 20 20 21 21 21 21 22 21 20
41 39 39 39 38 37 36 34 32 31 29 28 27 27 26 25 24 22 24 26 24 23 23 22 23 22 21 21 23 23 22 23 22 22 22 22 22 22 22 22 21 21 22 23 24 23 22 22 20 19 19 19 17 17 18 18 18 16 15 15 16 17 18 19 19 19 20 22 23 23 22 21 24 24 22 21 21 20 19 20 21 21 21 21 21 21 21 20
42 40 40 39 39 37 35 34 34 32 30 29 28 27 26 26 25 24 27 27 25 24 24 23 23 23 22 23 23 23 22 22 22 22 22 23 22 22 21 21 21 21 22 23 23 23 22 21 21 20 19 17 15 16 17 17 17 16 17 17 17 19 19 19 21 19 20 23 22 22 22 22 25 25 23 23 22 21 21 21 21 21 21 22 22 21 21 21
43 42 41 40 39 38 36 35 34 33 31 30 28 28 27 26 28 29 29 26 24 26 25 24 25 24 23 23 23 23 22 23 23 23 22 23 23 23 22 22 21 20 21 23 22 22 22 22 22 20 20 18 17 17 18 18 18 17 17 17 17 19 19 20 21 20 22 24 23 23 22 23 28 28 25 25 24 24 24 24 22 22 22 23 23 23 23 23
43 43 42 41 40 39 38 36 35 34 33 31 30 29 27 27 31 33 31 28 26 25 24 23 24 24 23 24 24 24 23 23 23 22 22 22 22 23 23 22 21 20 20 21 21 21 22 22 21 20 21 21 19 19 19 20 20 19 19 18 18 17 18 21 22 21 24 25 24 24 24 25 28 28 26 27 27 27 27 27 26 25 24 24 24 24 24 25
42 42 41 42 41 41 39 37 36 35 34 33 31 30 30 32 33 32 32 33 29 27 26 24 23 24 25 26 26 24 22 23 23 21 21 21 21 23 23 22 21 20 20 19 20 20 20 21 21 21 21 21 21 21 20 19 20 21 21 20 20 19 19 22 22 22 24 24 24 24 24 25 26 26 26 27 27 27 27 27 26 25 25 25 25 26 26 27
41 41 41 41 41 42 40 39 37 36 35 34 32 32 34 36 34 32 33 33 31 30 29 27 25 25 26 27 26 24 23 23 22 21 21 22 22 22 22 23 22 21 21 20 20 19 20 22 21 20 20 20 21 21 20 19 21 22 21 21 23 23 22 23 24 23 24 25 26 25 26 27 27 27 27 26 26 25 25 24 24 24 25 26 26 28 28 28
40 40 41 41 41 41 41 40 38 37 36 34 33 35 38 36 34 32 32 31 30 29 27 26 26 25 26 26 26 26 24 23 22 22 23 23 23 23 23 23 23 23 22 21 21 19 19 22 21 20 20 21 21 21 21 22 22 22 22 23 24 24 23 23 25 25 24 26 28 27 28 31 30 30 30 27 27 26 25 25 25 25 26 27 28 29 30 30
39 39 40 41 40 40 40 39 38 37 37 34 35 38 37 35 33 31 30 28 27 26 25 27 27 26 26 26 26 26 25 24 23 23 24 23 24 24 24 24 23 24 24 22 22 22 20 22 22 20 21 22 22 21 21 23 22 21 23 25 24 23 23 23 24 25 24 27 29 28 29 31 30 30 30 28 28 28 28 27 27 27 27 28 30 31 31 31
39 38 38 39 39 38 38 38 37 36 34 33 36 38 35 34 33 29 27 26 24 24 26 28 27 26 27 27 26 26 25 25 25 24 24 24 24 23 22 23 23 24 25 23 22 23 22 23 24 22 22 23 22 21 22 23 23 23 24 25 23 23 24 24 24 25 26 28 29 29 30 31 31 31 31 30 30 30 29 28 28 29 29 30 31 31 31 30
37 36 36 37 38 37 37 36 35 34 33 33 36 37 34 33 33 30 27 25 24 25 26 27 26 25 26 26 25 25 26 26 25 25 24 24 25 24 22 22 22 24 25 23 24 24 23 23 24 24 24 24 23 23 24 25 24 24 25 26 26 26 25 25 26 26 27 27 29 30 30 31 32 31 30 31 31 29 29 30 30 30 31 31 31 31 31 31
36 34 34 36 37 37 37 36 34 34 35 35 35 35 32 32 32 31 29 27 25 26 26 27 26 26 26 26 25 25 25 26 25 25 25 25 25 25 24 23 22 22 23 24 25 25 24 24 25 24 24 24 25 26 26 26 26 26 27 27 28 27 26 27 28 28 27 27 27 29 31 32 32 30 29 30 30 30 30 31 31 32 33 33 33 32 32 31
35 33 33 35 37 37 36 36 35 35 36 35 35 33 32 31 31 31 30 29 28 28 27 27 28 27 27 26 26 26 25 25 26 26 27 27 26 25 25 24 23 22 22 23 25 26 25 25 26 26 26 27 28 28 27 28 28 27 28 29 29 28 27 27 29 29 29 28 28 29 31 33 33 31 31 32 32 31 31 31 32 34 34 34 33 33 33 32
34 34 33 34 36 37 35 34 34 35 36 36 34 33 32 32 31 30 30 30 30 29 28 28 28 28 27 27 26 26 25 26 27 27 27 28 27 26 25 25 24 23 23 24 26 26 26 26 26 28 29 29 29 29 28 28 28 27 29 29 29 29 29 29 30 30 29 30 30 30 32 34 34 33 34 35 34 32 32 32 33 34 34 34 34 34 34 34
33 33 32 34 36 36 33 32 33 34 35 34 33 33 32 32 32 31 31 31 31 30 29 29 28 28 28 28 27 27 27 27 27 28 28 27 27 27 27 26 25 24 24 25 26 26 26 27 28 29 29 28 29 29 29 29 28 29 30 30 29 30 31 32 32 31 30 31 31 30 32 35 34 34 34 35 33 32 33 33 33 33 34 35 36 36 36 36
31 31 31 33 36 36 33 32 33 34 35 33 33 33 32 32 32 32 32 31 30 30 30 30 30 30 29 28 28 28 29 28 28 28 28 28 28 28 27 27 27 26 26 27 27 28 28 28 28 27 28 27 28 28 29 30 29 30 31 30 30 30 30 31 32 31 31 33 32 31 34 35 33 33 34 33 32 32 34 34 34 34 35 36 37 37 37 37
29 29 30 33 36 37 34 32 32 33 34 33 33 33 32 32 32 32 32 31 30 29 30 30 30 30 29 29 29 29 30 29 28 28 28 29 29 29 28 28 29 28 28 27 27 27 29 29 28 28 28 29 28 26 27 29 29 30 31 31 32 32 31 32 32 32 33 34 33 35 37 35 33 34 35 34 34 34 36 35 35 36 37 38 38 38 38 38
29 29 30 31 35 37 35 33 32 32 33 33 33 32 33 32 31 31 32 32 31 30 30 30 29 29 29 30 30 31 31 30 29 29 30 30 30 30 29 29 29 30 30 29 28 27 28 30 31 31 32 33 32 30 30 29 29 31 32 33 33 33 33 33 33 34 34 33 35 38 37 35 35 36 37 37 36 36 37 37 37 38 38 38 38 39 39 39
31 31 31 31 32 35 35 34 34 33 33 33 33 32 34 34 32 31 32 32 31 31 30 30 30 31 32 32 31 32 32 32 31 32 32 32 31 30 30 30 30 31 31 30 30 30 30 33 34 35 37 37 35 34 34 33 33 34 34 35 34 33 34 35 36 36 35 34 38 39 36 35 38 38 38 38 37 37 38 38 38 39 39 39 39 40 40 41
33 33 33 32 31 33 35 35 35 34 34 35 34 33 35 36 35 34 33 32 32 32 32 32 33 34 34 33 33 33 33 33 34 34 33 32 32 31 31 31 31 31 31 31 32 31 32 36 36 36 37 36 35 35 35 34 35 35 35 36 35 34 35 36 38 38 36 37 40 39 36 38 40 39 38 39 39 38 39 39 40 40 40 41 41 41 42 41
35 34 34 34 33 33 33 34 34 35 36 36 36 36 37 38 39 36 34 33 33 35 35 35 36 35 35 34 34 34 34 34 34 34 33 32 32 32 32 33 32 32 32 32 33 33 33 35 35 35 36 35 35 35 34 34 36 36 37 38 37 35 35 36 38 39 38 39 41 41 40 42 43 41 40 39 39 40 40 41 42 42 42 42 41 41 40 39
35 35 34 34 35 34 33 33 34 36 37 36 37 38 37 38 39 37 36 36 36 36 36 38 37 35 35 35 34 35 36 35 34 34 32 32 32 32 33 33 32 32 33 33 34 34 34 35 34 34 35 35 35 35 34 35 36 37 40 40 37 35 37 39 40 39 38 41 42 42 43 45 43 40 39 40 40 40 41 42 42 42 41 40 39 39 38 37
36 36 35 35 35 35 35 34 34 36 38 38 39 38 36 38 39 36 36 37 37 36 36 37 37 35 34 34 35 37 37 35 35 35 33 34 35 34 34 34 33 33 34 35 35 35 35 35 34 34 35 36 35 35 35 35 36 39 43 42 38 37 40 41 40 39 40 42 42 41 43 44 41 37 37 39 39 39 40 40 40 40 39 37 37 37 37 37
37 37 36 36 36 36 36 36 35 36 38 38 39 39 38 39 38 36 36 37 37 37 36 37 37 35 34 35 36 37 36 34 35 35 34 34 34 34 35 35 34 35 35 35 35 36 36 36 35 34 34 34 34 34 34 33 34 39 43 41 38 40 42 42 40 40 41 40 39 41 42 41 38 35 36 38 38 38 39 38 38 38 37 36 37 36 36 37
Wind_Direction
224 225 226 227 229 231 233 235 238 241 244 248 252 255 258 261 264 266 268 270 272 274 276 276 278 279 279 281 282 285 286 285 285 286 282 278 273 268 267 269 268 266 272 277 277 274 280 287 287 292 292 291 294 292 295 297 297 301 297 294 291 284 284 280 275 279 290 293 294 303 306 302 303 305 307 305 305 308 309 307 303 302 301 297 297 299 301 302
228 229 230 231 233 235 237 239 242 244 248 252 256 259 261 263 266 267 268 270 272 273 274 276 277 278 279 281 282 284 285 283 284 283 280 276 268 264 266 268 267 268 273 276 274 273 278 280 281 289 292 288 291 292 293 295 296 296 292 292 286 277 278 277 272 278 288 292 291 298 301 297 296 300 306 303 301 309 310 305 306 306 305 304 303 303 305 305
231 232 233 235 236 238 240 242 244 247 251 255 258 261 263 265 267 269 270 270 271 272 273 275 275 277 279 280 282 283 283 284 283 280 275 269 262 265 270 270 269 271 276 275 271 272 276 277 277 284 291 289 288 292 293 293 293 291 290 290 282 274 279 279 274 278 284 291 293 298 299 295 294 297 302 300 300 306 302 299 303 305 306 306 305 305 307 306
234 235 236 238 239 240 242 244 247 250 253 257 260 263 265 267 268 269 270 271 271 272 272 273 274 276 277 279 281 281 283 286 280 270 266 265 266 272 275 273 273 276 278 275 272 273 277 279 281 285 289 289 289 291 289 290 290 288 286 282 279 278 283 281 277 279 284 289 292 297 301 298 296 297 298 299 303 304 297 295 295 298 303 304 305 305 306 307
237 238 239 240 241 243 245 246 249 252 255 258 261 264 265 267 268 269 270 271 271 271 272 273 274 275 276 278 279 279 283 285 274 264 264 267 271 275 277 276 276 279 278 275 273 274 278 279 282 286 287 286 289 291 287 286 287 286 283 278 278 278 282 283 281 282 286 292 295 299 300 297 299 299 295 296 299 295 295 299 295 295 300 302 305 306 308 310
239 240 241 242 243 245 247 248 251 253 256 259 262 264 266 267 269 270 270 271 271 271 271 272 273 274 276 277 276 275 275 274 270 268 270 269 271 275 277 277 276 278 276 273 274 274 276 280 281 281 284 287 285 284 285 286 285 285 285 284 281 277 279 284 285 284 289 295 294 295 295 298 303 299 294 291 288 288 295 301 299 299 302 303 306 309 310 311
241 242 243 244 245 246 248 249 252 254 257 260 263 265 267 268 269 270 270 271 271 271 271 271 272 273 276 275 273 275 271 268 271 272 272 269 269 273 275 276 275 276 273 270 273 272 274 277 276 276 282 287 283 280 284 287 285 282 284 287 283 279 278 282 287 287 290 291 289 293 296 296 295 295 298 292 286 290 298 303 302 303 307 308 309 309 308 308
242 243 243 245 246 247 249 251 253 255 259 261 264 266 267 268 269 269 270 270 270 270 270 270 271 273 274 271 270 275 271 269 273 273 270 268 268 270 273 275 275 275 271 268 270 270 272 273 271 274 280 282 278 280 284 287 286 279 279 283 284 283 282 285 289 288 290 289 289 293 292 289 288 292 296 287 287 297 300 304 304 303 307 308 309 308 307 307
243 243 244 245 246 247 249 251 254 256 259 262 264 265 266 267 268 269 269 269 269 269 269 270 271 271 271 269 270 273 270 269 273 272 269 267 267 269 272 274 274 273 270 269 271 269 271 272 271 272 275 277 276 278 282 284 283 276 275 282 286 287 287 289 289 287 288 288 289 291 289 289 291 294 291 282 288 300 302 305 304 303 307 308 307 306 306 306
243 244 245 246 246 248 250 252 255 257 260 261 263 264 265 266 267 268 268 268 268 268 269 269 269 269 268 267 268 269 269 270 272 271 269 267 267 270 271 272 271 271 269 270 270 268 270 271 271 272 274 277 275 277 280 279 279 278 279 283 283 285 288 287 286 286 288 287 285 283 287 292 293 294 289 285 293 299 302 306 304 305 307 306 305 305 305 306
243 244 245 246 247 249 251 253 256 258 259 260 262 263 264 265 266 267 267 268 268 268 268 268 268 267 266 266 263 264 269 271 271 270 268 268 268 268 269 269 268 268 270 272 270 268 269 269 270 274 276 277 276 279 279 276 280 282 284 286 285 288 289 285 284 287 288 288 283 278 285 292 294 291 282 283 295 299 301 304 303 304 304 303 304 303 303 304
244 244 245 246 248 250 252 254 256 257 258 260 261 262 264 265 265 266 267 267 267 267 266 267 266 264 265 266 263 263 268 270 268 268 267 267 267 267 267 267 267 267 269 272 271 269 268 267 268 272 274 275 278 281 278 279 283 284 286 287 287 293 292 285 286 288 288 287 283 281 287 291 290 282 278 284 295 298 301 302 301 300 299 300 301 301 301 303
244 244 245 246 248 250 252 254 255 256 258 259 261 262 263 264 265 266 266 266 266 266 266 265 264 264 264 266 264 264 267 267 265 265 267 267 265 267 267 267 267 269 270 269 269 268 267 267 268 270 273 274 277 278 280 283 284 283 286 285 287 294 292 287 289 290 289 286 283 283 286 289 287 278 278 289 295 298 301 300 298 296 296 296 297 299 300 303
244 244 245 247 248 250 252 253 255 256 258 259 260 262 263 264 265 265 265 265 265 265 264 264 264 264 263 265 266 266 265 264 263 263 265 265 265 266 268 269 270 271 270 267 267 267 267 268 269 272 274 275 277 278 282 287 284 282 284 285 287 287 285 289 290 286 287 287 284 283 283 286 288 283 284 291 295 299 299 296 295 294 294 294 295 298 300 304
243 244 246 247 249 251 252 253 254 256 257 258 260 261 263 263 264 264 264 264 264 263 263 263 264 264 265 266 266 266 265 264 263 263 264 264 264 266 267 268 270 270 268 266 266 267 267 268 270 272 274 277 279 278 281 284 285 283 281 283 286 282 283 291 290 281 283 286 284 283 283 287 287 284 287 292 296 299 296 293 293 293 294 294 295 298 299 302
243 244 246 247 249 250 251 252 254 255 257 258 260 261 262 263 262 262 262 263 263 262 262 264 264 263 265 266 265 265 264 263 263 264 265 264 264 265 266 265 268 268 267 267 267 267 268 270 271 272 273 276 277 278 281 282 283 283 279 279 282 281 284 291 290 286 285 285 286 285 284 287 287 284 288 295 298 297 293 292 293 294 295 296 296 298 300 301
243 244 246 247 249 250 251 252 253 255 257 258 260 261 262 262 261 260 261 262 262 262 263 263 263 264 265 265 265 265 264 263 264 264 264 265 264 263 264 265 266 267 267 269 268 267 269 270 270 272 275 276 275 275 277 278 279 281 281 280 281 280 282 286 287 289 291 287 286 288 284 283 286 286 290 297 298 292 287 289 291 293 295 295 297 299 301 302
243 244 245 247 248 249 250 252 253 254 256 258 260 260 261 260 259 260 260 260 261 263 264 262 262 265 265 263 263 264 263 263 262 262 263 264 263 263 264 265 265 265 267 269 268 267 268 270 270 272 277 275 272 270 270 272 274 276 279 281 282 282 280 282 283 286 291 289 285 286 285 284 286 286 289 295 294 288 285 286 289 292 293 293 294 297 300 301
243 244 245 246 247 248 250 251 252 254 256 258 259 259 259 260 260 260 260 260 260 260 262 260 257 261 264 263 263 263 262 262 262 262 262 262 262 262 264 264 264 264 264 267 267 265 266 270 270 271 273 271 268 266 266 269 272 274 276 277 279 281 280 281 282 282 285 285 283 282 282 283 285 285 288 293 292 287 285 286 289 290 290 290 291 294 297 300
242 243 244 245 245 247 249 250 252 254 255 257 257 258 258 259 261 262 260 259 258 258 260 259 257 259 263 265 263 261 262 262 263 262 261 260 260 261 264 265 266 266 265 264 265 266 266 266 267 268 269 266 265 265 267 274 276 277 278 278 277 278 281 283 282 282 282 281 281 281 282 283 283 284 288 291 291 290 288 287 288 287 287 287 288 291 294 297
242 243 244 244 245 246 248 250 252 253 255 256 256 256 256 257 259 261 262 261 260 259 260 260 259 261 262 263 261 260 262 263 263 262 260 259 258 260 263 264 265 267 266 264 265 269 267 264 266 268 267 266 267 266 270 276 278 278 277 278 279 277 280 281 280 282 281 278 281 284 285 283 280 282 287 290 290 292 290 286 284 283 283 284 286 289 292 294
241 242 243 244 245 246 248 250 252 253 254 255 254 255 256 257 258 261 262 263 263 260 259 260 260 261 262 261 260 260 262 263 263 261 258 258 258 259 261 262 263 264 265 265 267 270 267 266 268 269 268 270 272 269 269 272 273 275 275 276 278 279 282 282 281 284 281 277 281 285 284 281 280 282 288 290 288 291 291 286 283 281 281 284 285 288 290 291
240 241 242 243 245 246 248 250 252 252 253 253 253 254 256 258 259 261 262 263 264 262 260 259 259 259 260 261 260 259 260 261 262 260 256 255 256 258 258 260 263 263 263 264 264 264 265 268 270 268 266 267 270 270 268 271 273 272 272 273 276 279 281 280 282 284 282 281 283 284 283 282 282 283 288 290 288 290 291 288 288 285 283 284 284 286 288 291
239 240 241 243 244 246 248 250 251 252 252 252 252 253 255 258 259 261 263 264 264 262 260 259 259 259 259 260 259 257 259 261 261 259 255 252 254 258 259 259 261 262 263 263 262 262 264 269 271 269 265 263 266 268 267 269 272 271 270 271 275 277 274 275 280 284 284 285 285 286 287 285 283 282 284 287 288 289 290 290 292 290 286 285 284 286 288 291
239 240 241 242 243 245 247 249 250 250 251 252 252 253 254 257 259 261 264 266 265 263 262 260 260 260 258 259 258 257 260 261 260 260 255 251 252 258 261 260 261 262 263 263 263 264 266 269 271 270 268 265 264 266 266 266 269 273 272 268 270 272 272 274 281 286 286 286 286 288 288 287 288 285 280 282 286 289 290 291 291 289 287 285 285 287 288 291
238 239 240 241 243 244 246 249 250 249 250 251 252 252 253 255 258 261 264 267 266 264 261 259 259 259 257 258 257 257 262 262 261 260 256 252 253 257 261 261 263 264 262 263 264 266 268 269 267 265 266 264 264 267 267 263 266 273 272 267 266 269 272 273 277 281 281 280 284 286 284 286 290 286 280 281 285 288 289 290 288 286 285 284 285 286 287 290
238 239 240 241 242 243 246 249 249 248 249 251 250 249 251 254 257 261 265 268 266 262 259 258 257 257 257 257 254 253 260 263 261 259 255 253 254 257 259 261 263 264 262 261 264 266 267 267 266 263 263 262 262 266 264 259 263 269 270 268 267 269 271 272 273 275 277 280 284 285 284 287 287 285 284 283 284 287 287 286 285 283 283 283 284 286 287 289
238 238 240 241 241 242 245 248 247 247 249 250 248 247 250 252 255 260 263 265 264 260 258 257 255 256 256 255 254 255 260 263 262 260 256 253 254 257 260 259 259 261 261 259 261 267 267 265 263 260 261 261 261 263 258 254 262 267 267 268 269 270 272 276 277 277 281 283 281 283 287 287 284 285 288 286 284 285 282 279 280 279 280 282 283 286 287 287
238 239 240 240 240 241 244 246 247 247 248 247 246 246 248 251 254 259 260 259 260 260 259 256 254 256 255 253 258 261 263 264 262 260 258 255 255 259 259 258 258 259 262 261 261 266 267 265 262 258 259 260 261 263 257 255 262 264 264 270 276 278 279 280 279 278 283 282 276 278 282 283 284 286 286 286 285 283 280 278 277 277 278 280 282 284 284 283
238 239 240 240 240 241 244 246 246 245 245 245 245 245 246 250 253 255 255 255 257 260 259 257 256 257 255 256 262 263 262 263 261 258 258 257 257 261 259 258 260 260 263 266 264 264 266 266 263 260 260 258 256 260 260 259 261 260 265 273 279 282 282 282 281 281 284 281 276 276 276 276 282 286 284 283 284 281 280 280 278 277 277 277 279 281 280 279
238 238 239 240 240 240 242 245 243 242 243 243 244 243 245 251 252 250 252 255 258 260 259 258 259 259 257 258 261 261 261 262 258 255 257 258 258 260 259 258 260 261 263 265 264 266 266 264 263 261 258 256 256 260 262 264 263 262 267 271 274 280 283 284 284 283 281 279 281 283 280 273 275 281 284 283 283 282 280 278 275 275 274 275 277 278 278 278
237 237 238 239 240 239 241 244 241 239 240 241 242 243 246 250 249 247 251 257 259 258 256 257 261 261 259 261 261 259 259 259 257 254 255 256 256 256 257 256 255 259 263 261 261 266 264 260 261 261 257 253 254 259 263 266 266 264 265 267 271 278 284 284 282 281 278 278 282 284 282 276 274 277 281 281 284 284 281 278 274 271 271 273 275 277 277 277
237 237 237 238 239 240 241 242 240 238 239 240 241 244 246 248 249 247 249 253 256 257 259 260 262 260 258 259 260 258 259 258 255 254 255 255 254 255 257 257 253 256 261 260 260 261 263 265 261 257 257 253 249 254 258 261 261 259 260 262 266 273 280 281 281 283 281 280 282 281 279 279 279 281 281 280 282 282 281 280 274 269 269 270 273 275 275 276
235 236 237 238 239 239 239 239 238 238 239 238 240 243 243 246 251 249 247 251 255 259 262 262 261 260 257 258 258 255 256 257 253 253 254 253 252 253 255 255 254 256 260 260 261 257 259 265 258 252 256 253 249 253 256 258 260 262 263 263 264 266 270 276 278 278 279 282 283 280 278 278 280 283 283 280 281 283 283 280 274 270 270 272 274 275 275 276
235 236 238 238 238 238 238 237 237 238 237 237 240 241 240 245 251 252 251 253 256 258 260 261 259 257 256 257 257 253 253 256 254 253 254 252 252 253 254 254 252 254 256 256 261 259 257 262 260 258 258 253 252 257 257 259 263 266 266 265 266 266 268 274 276 275 278 283 281 276 275 277 278 281 283 283 284 285 284 279 274 273 273 274 275 274 274 275
235 236 237 238 239 238 237 237 237 236 235 235 238 239 242 247 251 253 254 254 253 253 254 256 256 254 253 254 254 252 254 255 253 253 255 254 255 255 255 257 253 251 253 254 258 259 258 263 264 263 261 256 257 259 260 260 262 264 265 264 266 268 268 273 277 279 280 279 278 276 276 279 281 281 282 282 283 284 282 279 276 275 275 274 274 273 273 274
234 235 236 237 237 236 235 235 234 233 233 235 238 240 245 248 249 251 254 254 252 250 248 250 251 250 250 252 251 250 252 254 252 253 255 256 257 255 255 259 254 248 250 254 259 259 259 264 265 261 259 261 261 261 263 264 261 262 264 264 267 270 271 272 276 281 281 277 278 277 275 278 279 279 282 282 280 279 278 279 278 278 276 274 273 272 272 272
232 233 235 235 233 232 231 231 230 229 232 236 238 241 245 246 246 249 251 252 251 249 248 249 250 250 250 249 250 249 249 250 250 251 253 255 258 257 255 257 255 250 250 253 259 261 260 264 266 261 259 263 265 262 264 266 263 262 265 267 268 270 272 272 272 276 277 276 279 280 278 277 276 276 280 278 274 274 276 277 278 276 274 273 272 271 271 271
230 231 235 234 230 229 228 227 227 229 233 237 237 240 243 244 245 247 247 249 251 249 248 250 251 252 250 248 250 250 248 248 248 250 253 254 257 257 255 256 256 255 253 251 256 261 261 263 266 265 263 264 266 263 261 264 266 266 267 269 271 271 271 270 270 273 275 276 279 281 281 279 277 277 276 273 272 272 273 275 276 274 273 273 272 270 270 271
227 230 235 233 228 227 227 227 229 231 235 237 238 240 243 244 244 245 245 248 251 250 249 249 249 250 249 249 250 249 247 248 248 250 252 252 254 257 257 256 256 257 255 252 255 260 261 261 264 267 266 262 262 263 262 262 264 265 265 267 270 271 272 273 272 271 273 275 277 279 279 279 280 280 276 274 274 273 272 274 276 275 273 273 271 270 270 270
226 229 234 230 226 226 227 229 232 234 236 237 239 241 243 244 243 244 246 247 249 250 250 248 248 248 248 248 248 247 246 247 248 250 252 252 254 257 258 257 255 256 257 255 256 258 260 261 262 264 264 262 263 267 266 264 264 265 265 266 268 270 270 273 273 271 271 273 274 275 277 278 280 280 278 278 278 275 273 275 276 274 273 272 271 270 269 269
226 230 232 228 225 223 225 230 234 235 237 238 239 240 241 242 243 242 244 246 247 249 250 249 248 247 247 247 248 247 247 249 250 251 254 254 255 258 259 258 257 256 257 258 258 259 261 263 264 265 265 264 266 269 267 266 266 266 267 269 270 269 267 267 271 272 271 271 273 274 276 278 279 278 280 281 279 275 274 275 275 274 272 272 271 270 269 268
226 230 231 226 222 220 223 230 233 234 236 238 239 239 239 241 243 243 243 244 245 246 247 248 248 247 247 248 249 249 250 252 253 254 256 257 258 260 260 259 259 259 259 260 261 261 262 263 264 267 269 269 269 270 269 269 269 268 269 270 269 268 267 267 269 272 272 270 272 275 276 277 279 280 281 281 279 276 275 275 275 274 273 272 271 270 269 269
226 228 229 224 220 220 225 231 232 233 236 237 237 238 239 241 242 241 241 242 243 244 245 247 247 246 247 248 248 249 250 253 255 256 257 258 259 262 262 261 261 261 261 262 261 261 262 262 262 265 268 269 269 270 269 269 269 267 268 269 267 267 268 269 270 271 272 271 270 273 276 277 280 282 282 281 280 278 276 276 277 276 275 273 272 272 271 272
225 227 228 225 222 224 230 234 234 234 235 235 236 237 238 242 243 241 240 241 242 243 245 247 247 246 247 248 250 251 251 254 257 258 258 258 259 261 261 262 262 262 263 263 260 259 261 261 259 260 263 264 266 267 267 267 268 267 267 267 267 266 265 268 270 270 271 272 270 271 275 278 280 281 281 281 281 280 278 278 278 277 276 276 275 275 274 274
226 227 227 225 225 228 234 236 236 236 235 234 236 236 236 240 243 242 241 241 242 242 244 247 246 246 247 247 249 251 252 254 256 256 257 257 258 260 260 260 261 260 262 261 258 259 262 262 260 259 261 263 265 267 268 269 267 266 266 266 266 266 264 266 269 268 271 274 272 271 274 277 277 278 278 279 280 280 280 280 279 278 277 277 277 278 277 275
229 229 227 226 227 230 234 235 235 237 236 234 235 237 236 238 242 242 241 242 242 241 244 247 245 244 246 246 247 250 251 253 254 255 256 256 258 261 261 262 262 260 260 259 257 259 261 262 261 260 262 264 266 267 267 268 267 265 266 266 267 267 266 265 266 268 270 272 272 273 274 275 275 276 276 276 278 279 279 278 277 277 278 278 278 278 277 276
230 231 230 229 229 231 234 235 234 236 238 236 237 239 239 239 240 241 241 244 244 242 244 246 245 244 245 245 247 249 250 251 253 254 256 258 259 261 262 262 261 260 259 260 260 260 261 262 262 261 263 265 266 266 265 265 267 268 268 269 269 268 267 266 267 269 269 270 273 276 275 273 276 277 275 276 277 277 276 276 277 278 279 278 278 278 277 276
229 231 232 232 232 234 237 237 234 235 237 239 240 241 241 240 240 242 244 246 247 246 245 246 246 246 246 247 247 248 249 250 253 254 255 257 258 259 260 260 260 260 260 261 262 262 262 263 264 263 264 265 265 266 265 265 268 270 270 270 271 269 267 267 269 271 271 272 275 277 276 275 276 277 276 276 276 276 276 277 278 279 279 278 278 277 276 276
230 231 232 234 235 236 238 238 235 235 238 238 241 243 243 242 241 243 246 245 246 248 247 247 248 248 248 248 248 249 250 251 253 254 254 255 257 257 259 260 261 262 262 261 262 263 263 264 265 265 265 266 268 269 268 267 268 269 270 271 271 270 269 269 272 273 274 274 275 276 276 276 278 279 277 276 276 276 277 278 278 278 277 277 277 276 276 276
232 233 234 235 237 237 238 239 238 238 239 239 241 243 243 243 243 245 248 247 246 247 247 247 249 250 249 249 248 250 252 252 254 255 254 255 257 257 259 260 259 260 261 262 263 263 263 264 267 266 265 266 268 268 267 268 269 268 269 269 268 269 271 272 273 273 272 273 275 275 275 277 281 280 277 276 276 276 276 276 277 277 276 275 275 276 276 276
235 236 236 237 240 239 239 241 241 241 241 241 242 243 243 244 244 244 249 250 248 248 248 247 248 250 250 249 249 252 253 253 255 257 257 259 260 260 260 259 258 259 260 262 265 265 264 264 265 264 263 265 267 266 266 268 269 269 270 269 267 269 272 273 274 273 272 273 274 274 276 279 281 280 277 277 277 276 276 276 275 276 275 275 276 276 276 276